STARLINK-31510 (59575 NORAD) Tracking and Keplerian Element Data

This shows tracking and keplerian element data for the satellite.

Feedback or suggestion? Click here.




ElementValue
Catalog59575
NameSTARLINK-31510
Epoch Orbit829
Epoch Day160.06571739
Epoch Year2024
RAAN54.7506
Inclination42.9993
Eccentricity0.0001963
Argument of Perigee273.7594
Mean Anonmoly86.3038
Mean Motion15.40761783
Decay Rate0.00105255
L11 59575U 24076M 24160.06571739 .00105255 00000+0 24872-2 0 9993
L22 59575 42.9993 54.7506 0001963 273.7594 86.3038 15.40761783 8291



Live tracking and technical data element details for STARLINK-31510 (NORAD 59575). STARLINK-31510 can be tracked NOW for your location showing map with azimuth and elevation plus other details from your city location.







IsCatalogInMostPopularTable: catalog: 59575, numindb: 11
Update: records affected: 1



GetName: 59575 STARLINK-31510

Hit Count: updated at: Fri, 14 Jun 2024 19:25:46 GMT